EDT,Max TemperatureF,Mean TemperatureF,Min TemperatureF,Max Dew PointF,MeanDew PointF,Min DewpointF,Max Humidity, Mean Humidity, Min Humidity, Max Sea Level PressureIn, Mean Sea Level PressureIn, Min Sea Level PressureIn, Max VisibilityMiles, Mean VisibilityMiles, Min VisibilityMiles, Max Wind SpeedMPH, Mean Wind SpeedMPH, Max Gust SpeedMPH,PrecipitationIn, CloudCover, Events, WindDirDegrees
2013-9-1,80,77,74,73,72,70,93,86,79,29.86,29.84,29.81,10,7,1,16,10,21,0.25,7,Rain,203
2013-9-2,78,74,69,73,72,69,100,94,87,29.81,29.76,29.70,10,4,1,12,6,15,0.04,8,Rain,185
2013-9-3,81,74,66,73,67,56,100,76,51,29.86,29.76,29.71,10,7,0,22,7,30,0.42,6,Fog-Rain-Thunderstorm,253
2013-9-4,82,71,60,61,57,46,84,57,30,29.97,29.93,29.86,10,10,10,17,7,22,0.00,1,,266
2013-9-5,78,68,58,62,53,40,90,62,33,30.12,29.98,29.91,10,10,10,20,9,24,0.00,4,,315
2013-9-6,71,62,52,47,45,40,77,57,37,30.23,30.17,30.12,10,10,10,16,6,20,0.00,3,,13
2013-9-7,75,63,51,60,50,44,83,59,35,30.12,30.02,29.90,10,10,10,16,7,21,0.00,3,,226
2013-9-8,83,71,58,61,55,42,90,63,36,30.06,29.87,29.80,10,10,10,20,10,26,0.00,4,,308
2013-9-9,70,60,49,57,46,42,73,56,39,30.23,30.18,30.08,10,10,10,13,6,16,0.00,4,,145
2013-9-10,78,73,67,69,66,58,87,80,73,30.17,30.12,30.07,10,10,10,22,11,29,T,7,Rain,208
2013-9-11,88,80,71,73,70,69,93,77,61,30.11,30.06,29.99,10,9,5,20,8,24,0.00,2,,217
2013-9-12,82,76,70,72,70,67,93,81,69,29.98,29.83,29.68,10,7,1,23,11,30,0.47,6,Rain-Thunderstorm,215
2013-9-13,78,69,60,68,62,50,97,72,47,29.80,29.66,29.62,10,8,4,26,9,32,0.05,5,Rain,305
2013-9-14,69,62,54,49,47,46,77,63,48,30.09,29.95,29.82,10,10,10,21,10,29,0.00,3,,315
2013-9-15,69,59,48,56,49,45,86,65,44,30.20,30.13,30.09,10,10,10,13,5,16,0.00,4,,233
2013-9-16,72,64,55,58,53,43,87,68,49,30.20,30.07,30.04,10,10,10,21,8,28,T,5,Rain,335
2013-9-17,63,55,46,43,37,35,80,58,36,30.40,30.34,30.24,10,10,10,25,9,30,0.00,1,,27
2013-9-18,69,57,44,50,45,40,89,63,37,30.34,30.26,30.19,10,10,10,14,5,17,0.00,0,,236
2013-9-19,74,61,47,55,50,45,93,66,38,30.19,30.13,30.08,10,9,1,15,5,20,0.00,0,,232
2013-9-20,76,64,52,59,54,49,96,70,43,30.09,30.05,30.02,10,10,0,15,5,20,0.00,1,Fog,190
2013-9-21,76,66,55,66,61,52,93,81,69,30.02,29.89,29.70,10,9,1,24,10,32,T,5,,166
2013-9-22,72,64,55,67,57,41,93,67,41,29.88,29.71,29.64,10,9,2,21,11,31,0.60,6,Rain,277
2013-9-23,66,59,51,44,40,38,66,53,39,30.02,29.96,29.89,10,10,10,20,11,28,0.00,0,,339
2013-9-24,71,60,48,47,43,39,83,60,37,30.03,29.95,29.85,10,10,10,16,7,21,0.00,0,,317
2013-9-25,73,60,47,51,47,42,86,62,37,29.94,29.91,29.87,10,10,10,13,4,16,0.00,3,,318
2013-9-26,69,60,50,56,52,48,89,71,53,30.09,30.01,29.93,10,10,10,12,4,14,0.00,5,,65
2013-9-27,66,58,49,54,50,47,93,73,52,30.26,30.18,30.10,10,10,3,16,7,21,0.00,6,,19
2013-9-28,74,63,52,55,52,49,93,69,44,30.31,30.26,30.23,10,10,10,16,5,22,0.00,1,,39
2013-9-29,71,60,49,54,49,38,96,63,29,30.23,30.15,30.08,10,9,1,14,5,20,0.00,2,,60
2013-9-30,72,61,50,57,53,48,100,77,53,30.07,30.02,29.97,10,10,10,12,5,16,0.00,3,,339